This demonstration page uses our WeatherBlox Daily Observations layout. Learn more.

Left ArrowRight Arrow

Hourly Observations for March 22, 2015

Temp ( °F °C ) Dew Point ( °F °C ) Humidity (%) Winds ( mph kmh ) Pressure ( in mb ) Visibility ( mi km ) Precip ( " mm )
12:15 am 00:15 Clear 37 3 23 -5 56 56 NNE 8 13 30.24 1024 10 16 N/A
12:36 am 00:36 Clear 37 3 23 -5 56 56 NNE 7 11 30.24 1024 10 16 N/A
12:56 am 00:56 Clear 37 3 23 -5 56 56 NNE 7 11 30.24 1024 10 16 N/A
1:15 am 01:15 Clear 36 2 23 -5 60 60 NE 7 11 30.24 1024 10 16 N/A
1:36 am 01:36 Clear 36 2 23 -5 60 60 NE 8 13 30.24 1024 10 16 N/A
1:56 am 01:56 Clear 36 2 23 -5 60 60 NE 7 11 30.24 1024 10 16 N/A
2:16 am 02:16 Clear 36 2 21 -6 56 56 NE 8 13 30.24 1024 10 16 N/A
2:36 am 02:36 Clear 36 2 21 -6 56 56 NE 3 6 30.24 1024 10 16 N/A
2:55 am 02:55 Clear 36 2 21 -6 56 56 NE 3 6 30.24 1024 10 16 N/A
3:15 am 03:15 Clear 36 2 19 -7 52 52 ENE 5 7 30.24 1024 10 16 N/A
3:36 am 03:36 Clear 34 1 19 -7 56 56 NE 6 9 30.24 1024 10 16 N/A
3:56 am 03:56 Clear 34 1 19 -7 56 56 N N/A 30.24 1024 10 16 N/A
4:15 am 04:15 Clear 34 1 19 -7 56 56 NE 3 6 30.24 1024 10 16 N/A
4:36 am 04:36 Clear 34 1 19 -7 56 56 ENE 5 7 30.24 1024 10 16 N/A
4:56 am 04:56 Clear 32 undefined 18 -8 55 55 ENE 5 7 30.24 1024 10 16 N/A
5:15 am 05:15 Clear 32 undefined 18 -8 55 55 ENE 3 6 30.24 1024 10 16 N/A
5:36 am 05:36 Clear 32 undefined 18 -8 55 55 ENE 5 7 30.24 1024 10 16 N/A
5:56 am 05:56 Clear 32 undefined 18 -8 55 55 ENE 5 7 30.24 1024 10 16 N/A
6:15 am 06:15 Clear 30 -1 18 -8 59 59 NE 6 9 30.24 1024 10 16 N/A
6:36 am 06:36 Clear 32 undefined 18 -8 55 55 NE 7 11 30.24 1024 10 16 N/A
6:55 am 06:55 Clear 30 -1 18 -8 59 59 NE 7 11 30.24 1024 10 16 N/A
7:15 am 07:15 Clear 30 -1 18 -8 59 59 NE 6 9 30.24 1024 10 16 N/A
7:36 am 07:36 Clear 30 -1 18 -8 59 59 NE 6 9 30.24 1024 10 16 N/A
7:55 am 07:55 Sunny 30 -1 18 -8 59 59 NE 5 7 30.24 1024 10 16 N/A
8:16 am 08:16 Sunny 30 -1 18 -8 59 59 NE 5 7 30.24 1024 10 16 N/A
8:36 am 08:36 Sunny 32 undefined 19 -7 60 60 ENE 5 7 30.24 1024 10 16 N/A
8:55 am 08:55 Sunny 34 1 19 -7 56 56 ENE 6 9 30.24 1024 10 16 N/A
9:16 am 09:16 Sunny 36 2 19 -7 52 52 ENE 7 11 30.24 1024 10 16 N/A
9:36 am 09:36 Sunny 37 3 21 -6 52 52 ENE 7 11 30.24 1024 10 16 N/A
9:55 am 09:55 Sunny 37 3 21 -6 52 52 ENE 10 17 30.27 1025 10 16 N/A
10:16 am 10:16 Sunny 39 4 21 -6 48 48 E 13 20 30.24 1024 10 16 N/A
10:36 am 10:36 Sunny 41 5 18 -8 39 39 E 14 22 30.24 1024 10 16 N/A
10:55 am 10:55 Sunny 41 5 19 -7 42 42 E 14 22 30.24 1024 10 16 N/A
11:16 am 11:16 Sunny 43 6 18 -8 36 36 E 15 24 30.24 1024 10 16 N/A
11:36 am 11:36 Sunny 43 6 18 -8 36 36 ENE 14 22 30.24 1024 10 16 N/A
11:55 am 11:55 Sunny 45 7 14 -10 29 29 NE 10 17 30.24 1024 10 16 N/A
12:16 pm 12:16 Sunny 45 7 16 -9 31 31 ENE 10 17 30.21 1023 10 16 N/A
12:36 pm 12:36 Sunny 46 8 16 -9 29 29 ENE 13 20 30.21 1023 10 16 N/A
12:55 pm 12:55 Sunny 46 8 14 -10 27 27 ENE 10 17 30.21 1023 10 16 N/A
1:16 pm 13:16 Sunny 46 8 14 -10 27 27 NE 9 15 30.21 1023 10 16 N/A
1:36 pm 13:36 Sunny 48 9 12 -11 23 23 NE 10 17 30.21 1023 10 16 N/A
1:55 pm 13:55 Sunny 48 9 10 -12 21 21 NE 13 20 30.21 1023 10 16 N/A
2:16 pm 14:16 Sunny 48 9 9 -13 20 20 NE 13 20 30.21 1023 10 16 N/A
2:35 pm 14:35 Sunny 48 9 9 -13 20 20 NNE 10 17 30.21 1023 10 16 N/A
2:55 pm 14:55 Sunny 50 10 7 -14 17 17 NE 10 17 30.21 1023 10 16 N/A
3:16 pm 15:16 Sunny 50 10 5 -15 16 16 NE 13 20 30.21 1023 10 16 N/A
3:35 pm 15:35 Sunny 50 10 3 -16 14 14 NE 12 19 30.21 1023 10 16 N/A
3:56 pm 15:56 Sunny 50 10 3 -16 14 14 NE 13 20 30.21 1023 10 16 N/A
4:16 pm 16:16 Sunny 50 10 3 -16 14 14 NE 9 15 30.21 1023 10 16 N/A
4:35 pm 16:35 Sunny 50 10 3 -16 14 14 NE 14 22 30.18 1022 10 16 N/A
4:56 pm 16:56 Sunny 50 10 3 -16 14 14 NE 13 20 30.18 1022 10 16 N/A
5:16 pm 17:16 Sunny 50 10 N/A 12 12 NE 12 19 30.18 1022 10 16 N/A
5:35 pm 17:35 Sunny 48 9 3 -16 15 15 ENE 10 17 30.18 1022 10 16 N/A
5:56 pm 17:56 Sunny 48 9 3 -16 15 15 ENE 9 15 30.18 1022 10 16 N/A
6:16 pm 18:16 Sunny 46 8 3 -16 17 17 ENE 12 19 30.21 1023 10 16 N/A
6:35 pm 18:35 Sunny 46 8 3 -16 17 17 ENE 12 19 30.21 1023 10 16 N/A
6:56 pm 18:56 Sunny 46 8 5 -15 18 18 ENE 12 19 30.21 1023 10 16 N/A
7:16 pm 19:16 Sunny 45 7 7 -14 21 21 ENE 10 17 30.21 1023 10 16 N/A
7:35 pm 19:35 Sunny 43 6 10 -12 26 26 ENE 9 15 30.18 1022 10 16 N/A
7:56 pm 19:56 Sunny 41 5 10 -12 28 28 NE 8 13 30.21 1023 10 16 N/A
8:16 pm 20:16 Clear 39 4 14 -10 36 36 NE 9 15 30.24 1024 10 16 N/A
8:35 pm 20:35 Clear 39 4 14 -10 36 36 NE 12 19 30.24 1024 10 16 N/A
8:56 pm 20:56 Clear 37 3 14 -10 38 38 NE 8 13 30.24 1024 10 16 N/A
9:15 pm 21:15 Clear 37 3 14 -10 38 38 ENE 8 13 30.24 1024 10 16 N/A
9:36 pm 21:36 Clear 36 2 16 -9 44 44 NE 8 13 30.24 1024 10 16 N/A
9:56 pm 21:56 Clear 36 2 14 -10 41 41 ENE 7 11 30.24 1024 10 16 N/A
10:15 pm 22:15 Clear 34 1 16 -9 48 48 NE 9 15 30.24 1024 10 16 N/A
10:36 pm 22:36 Clear 34 1 16 -9 48 48 NE 8 13 30.24 1024 10 16 N/A
10:56 pm 22:56 Clear 34 1 16 -9 48 48 NE 8 13 30.24 1024 10 16 N/A
11:15 pm 23:15 Clear 34 1 16 -9 48 48 NE 8 13 30.24 1024 10 16 N/A
11:36 pm 23:36 Clear 32 undefined 14 -10 47 47 ENE 7 11 30.24 1024 10 16 N/A
11:56 pm 23:56 Clear 32 undefined 14 -10 47 47 ENE 9 15 30.24 1024 10 16 N/A

Powered by AerisWeather